Dublin, Ireland

5:35 PM IST on April 26, 2017 (GMT +0100)
Dublin International

Weather History for EIDW - December, 2012

Change the Weather History Date:

Tuesday, December 4, 2012

  Actual Average Record
Temperature  
Mean Temperature 38 °F -  
Max Temperature 42 °F 47 °F 59 °F (2007)
Min Temperature 34 °F 38 °F 28 °F (2010)
Degree Days  
Heating Degree Days 27    
Moisture  
Dew Point 36 °F    
Average Humidity 90    
Maximum Humidity 100    
Minimum Humidity 79    
Precipitation  
Precipitation 0.00 in 0.10 in - ()
Sea Level Pressure  
Sea Level Pressure 29.63 in    
Wind  
Wind Speed 16 mph ()    
Max Wind Speed 23 mph    
Max Gust Speed 33 mph    
Visibility 6.6 miles    
Events Rain    
Averages and records for this station are not official NWS values.
T = Trace of Precipitation, MM = Missing Value Source: Averaged Metar Reports

Daily Weather History Graph

Daily Weather History Graph

Search for Another Location

Airport or City:

Trip Planner

Search our weather history database for the weather conditions in past years. The results will help you decide how hot, cold, wet, or windy it might be!

Date:

Astronomy

Dec. 04, 2012 Rise Set
Actual Time 8:22 AM GMT 4:08 PM GMT
Civil Twilight 7:40 AM GMT 4:49 PM GMT
Nautical Twilight 6:55 AM GMT 5:34 PM GMT
Astronomical Twilight 6:13 AM GMT 6:16 PM GMT
Moon 10:13 PM GMT (12/4) 11:40 AM GMT (12/4)
Length of Visible Light 9h 09m
Length of Day
7h 45m
Waning Gibbous, 71% of the Moon is Illuminated
Dec 4
Waning Gibbous
Dec 6
Last Quarter
Dec 13
New
Dec 20
First Quarter
Dec 28
Full

Hourly Weather History & Observations

Time (GMT) Temp. Windchill Dew Point Humidity Pressure Visibility Wind Dir Wind Speed Gust Speed Precip Events Conditions
12:00 AM 36 °F - 35 °F 92% 29.67 in 25 mi West 22.4 mph - -   Scattered Clouds
12:00 AM 35.6 °F 24.2 °F 33.8 °F 93% 29.65 in 6.2 mi West 21.9 mph - N/A   Mostly Cloudy
12:30 AM 37.4 °F 27.2 °F 35.6 °F 93% 29.65 in 6.2 mi West 19.6 mph - N/A   Mostly Cloudy
1:00 AM 37.4 °F 26.9 °F 35.6 °F 93% 29.65 in 6.2 mi West 20.7 mph - N/A   Mostly Cloudy
1:30 AM 37.4 °F 27.2 °F 35.6 °F 93% 29.65 in 6.2 mi West 19.6 mph - N/A   Mostly Cloudy
2:00 AM 37.4 °F 26.9 °F 33.8 °F 87% 29.65 in 6.2 mi West 20.7 mph - N/A   Mostly Cloudy
2:30 AM 37.4 °F 26.6 °F 35.6 °F 93% 29.65 in 6.2 mi West 21.9 mph - N/A   Mostly Cloudy
3:00 AM 37.4 °F 26.9 °F 35.6 °F 93% 29.65 in 6.2 mi West 20.7 mph - N/A   Mostly Cloudy
3:30 AM 35.6 °F 24.8 °F 33.8 °F 93% 29.65 in 6.2 mi West 19.6 mph - N/A   Mostly Cloudy
4:00 AM 35.6 °F 24.8 °F 33.8 °F 93% 29.65 in 6.2 mi West 19.6 mph - N/A   Partly Cloudy
4:30 AM 35.6 °F 25.5 °F 33.8 °F 93% 29.68 in 6.2 mi WSW 17.3 mph - N/A   Partly Cloudy
5:00 AM 35.6 °F 25.2 °F 33.8 °F 93% 29.68 in 6.2 mi WSW 18.4 mph - N/A   Partly Cloudy
5:30 AM 35.6 °F 25.9 °F 33.8 °F 93% 29.68 in 6.2 mi WSW 16.1 mph - N/A   Partly Cloudy
6:00 AM 36 °F - 33 °F 87% 29.68 in 25 mi WSW 20.1 mph - -   Partly Cloudy
6:00 AM 35.6 °F 24.5 °F 33.8 °F 93% 29.65 in 6.2 mi WSW 20.7 mph 33.4 mph N/A   Partly Cloudy
6:30 AM 35.6 °F 25.2 °F 33.8 °F 93% 29.65 in 6.2 mi WSW 18.4 mph - N/A   Partly Cloudy
7:00 AM 35.6 °F 25.2 °F 33.8 °F 93% 29.65 in 6.2 mi WSW 18.4 mph - N/A   Partly Cloudy
7:30 AM 35.6 °F 24.8 °F 33.8 °F 93% 29.65 in 6.2 mi WSW 19.6 mph - N/A   Partly Cloudy
8:00 AM 35.6 °F 24.8 °F 32.0 °F 87% 29.65 in 6.2 mi WSW 19.6 mph - N/A   Partly Cloudy
8:30 AM 35.6 °F 25.9 °F 32.0 °F 87% 29.68 in 6.2 mi WSW 16.1 mph - N/A   Partly Cloudy
9:00 AM 35.6 °F 24.8 °F 33.8 °F 93% 29.65 in 6.2 mi WSW 19.6 mph - N/A   Partly Cloudy
9:30 AM 35.6 °F 24.8 °F 33.8 °F 93% 29.65 in 6.2 mi WSW 19.6 mph - N/A   Partly Cloudy
10:00 AM 37.4 °F 26.4 °F 33.8 °F 87% 29.65 in 6.2 mi West 23.0 mph - N/A   Partly Cloudy
10:30 AM 37.4 °F 26.6 °F 33.8 °F 87% 29.65 in 6.2 mi West 21.9 mph - N/A   Scattered Clouds
11:00 AM 37.4 °F 27.8 °F 33.8 °F 87% 29.65 in 6.2 mi WSW 17.3 mph - N/A   Mostly Cloudy
11:30 AM 39.2 °F 30.8 °F 35.6 °F 87% 29.65 in 6.2 mi WSW 15.0 mph - N/A   Mostly Cloudy
12:00 PM 40 °F - 36 °F 79% 29.67 in 16 mi West 17.9 mph - - Rain Light Rain Showers
12:00 PM 39.2 °F 29.8 °F 35.6 °F 87% 29.65 in 6.2 mi West 18.4 mph - N/A   Mostly Cloudy
12:30 PM 41.0 °F 32.5 °F 35.6 °F 81% 29.62 in 6.2 mi WSW 17.3 mph - N/A   Mostly Cloudy
1:00 PM 41.0 °F 32.8 °F 35.6 °F 81% 29.62 in 6.2 mi WSW 16.1 mph - N/A   Mostly Cloudy
1:30 PM 41.0 °F 32.8 °F 35.6 °F 81% 29.59 in 6.2 mi WSW 16.1 mph - N/A   Mostly Cloudy
2:00 PM 42.8 °F 35.4 °F 37.4 °F 81% 29.59 in 6.2 mi WSW 15.0 mph - N/A   Mostly Cloudy
2:30 PM 41.0 °F 33.5 °F 37.4 °F 87% 29.59 in 6.2 mi WSW 13.8 mph - N/A   Mostly Cloudy
3:00 PM 41.0 °F 33.9 °F 37.4 °F 87% 29.56 in 6.2 mi WSW 12.7 mph 24.2 mph N/A   Mostly Cloudy
3:30 PM 42.8 °F 35.1 °F 37.4 °F 81% 29.56 in 6.2 mi WSW 16.1 mph - N/A   Mostly Cloudy
4:00 PM 41.0 °F 33.9 °F 37.4 °F 87% 29.56 in 6.2 mi WSW 12.7 mph - N/A   Mostly Cloudy
4:30 PM 41.0 °F 32.8 °F 37.4 °F 87% 29.56 in 6.2 mi WSW 16.1 mph - N/A   Mostly Cloudy
5:00 PM 41.0 °F 34.3 °F 37.4 °F 87% 29.56 in 6.2 mi West 11.5 mph - N/A   Mostly Cloudy
5:30 PM 41.0 °F 33.5 °F 37.4 °F 87% 29.56 in 6.2 mi West 13.8 mph - N/A   Mostly Cloudy
6:00 PM 40 °F - 37 °F 87% 29.60 in 16 mi West 13.4 mph - - Rain Light Rain
6:00 PM 39.2 °F 31.6 °F 37.4 °F 93% 29.59 in 6.2 mi West 12.7 mph - N/A   Mostly Cloudy
6:30 PM 37.4 °F 30.3 °F 35.6 °F 93% 29.59 in 6.2 mi West 10.4 mph - N/A   Mostly Cloudy
7:00 PM 39.2 °F 32.5 °F 37.4 °F 93% 29.59 in 6.2 mi WNW 10.4 mph - N/A   Mostly Cloudy
7:30 PM 39.2 °F 32.5 °F 37.4 °F 93% 29.59 in 6.2 mi West 10.4 mph - N/A Rain Light Rain
8:00 PM 39.2 °F 33.0 °F 37.4 °F 93% 29.62 in 6.2 mi WNW 9.2 mph - N/A   Mostly Cloudy
8:30 PM 39.2 °F 33.0 °F 37.4 °F 93% 29.62 in 6.2 mi WNW 9.2 mph - N/A   Mostly Cloudy
9:00 PM 39.2 °F 32.5 °F 37.4 °F 93% 29.62 in 6.2 mi WNW 10.4 mph - N/A   Mostly Cloudy
9:30 PM 39.2 °F 32.0 °F 37.4 °F 93% 29.62 in 6.2 mi WNW 11.5 mph - N/A   Mostly Cloudy
10:00 PM 39.2 °F 32.5 °F 37.4 °F 93% 29.65 in 6.2 mi WNW 10.4 mph - N/A   Mostly Cloudy
10:30 PM 39.2 °F 32.0 °F 37.4 °F 93% 29.65 in 6.2 mi WNW 11.5 mph - N/A   Mostly Cloudy
11:00 PM 39.2 °F 32.0 °F 37.4 °F 93% 29.68 in 6.2 mi NW 11.5 mph - N/A   Mostly Cloudy
11:30 PM 37.4 °F 30.8 °F 37.4 °F 100% 29.68 in 6.2 mi NW 9.2 mph - N/A   Mostly Cloudy